When you browse on this site, cookies collect data to enhance your experience and personalize the content and advertising you see.
Visit our Privacy Policy to learn more. By continuing to use the site, you agree to this use of cookies and data.
  • In Slovakia
  • List of Countries
  • For 7 days
  • Water Temperature
  • Satellite Maps
  • Weather Map
  • Weather Widgets
  • user-avatar
    Login

    Hourly Weather Wernerowo

    Today, 21 April, Sunday

    Time Temperature Precipitation Wind Pressure Humidity
    00:00 +5°C° 0 mm 3 mps 759 mmHg 72%
    01:00 +4°C° 0 mm 3 mps 759 mmHg 74%
    02:00 +4°C° 0 mm 3 mps 758 mmHg 74%
    03:00 +4°C° 0 mm 3 mps 758 mmHg 75%
    04:00 +3°C° 0 mm 3 mps 758 mmHg 76%
    05:00 +5°C° 0 mm 3 mps 758 mmHg 71%
    06:00 +7°C° 0 mm 3 mps 758 mmHg 67%
    07:00 +8°C° 0 mm 2 mps 758 mmHg 63%
    08:00 +10°C° 0 mm 2 mps 757 mmHg 57%
    09:00 +13°C° 0 mm 2 mps 757 mmHg 51%
    10:00 +14°C° 0 mm 3 mps 756 mmHg 45%
    11:00 +15°C° 0 mm 4 mps 756 mmHg 42%
    12:00 +17°C° 0 mm 4 mps 756 mmHg 39%
    13:00 +19°C° 0 mm 5 mps 755 mmHg 36%
    14:00 +17°C° 0 mm 5 mps 755 mmHg 39%
    15:00 +17°C° 0 mm 5 mps 754 mmHg 41%
    16:00 +16°C° 0 mm 5 mps 754 mmHg 43%
    17:00 +14°C° 0 mm 5 mps 753 mmHg 51%
    18:00 +12°C° 0 mm 4 mps 753 mmHg 58%
    19:00 +10°C° 0 mm 3 mps 753 mmHg 65%
    20:00 +9°C° 0 mm 3 mps 753 mmHg 71%
    21:00 +8°C° 0 mm 3 mps 754 mmHg 77%
    22:00 +7°C° 0 mm 2 mps 754 mmHg 83%
    23:00 +6°C° 0 mm 2 mps 754 mmHg 82%

    Tomorrow, 22 April, Monday

    Time Temperature Precipitation Wind Pressure Humidity
    00:00 +5°C° 0 mm 3 mps 754 mmHg 81%
    01:00 +4°C° 0 mm 3 mps 754 mmHg 80%
    02:00 +4°C° 0 mm 3 mps 754 mmHg 84%
    03:00 +4°C° 0 mm 3 mps 754 mmHg 88%
    04:00 +4°C° 0 mm 4 mps 754 mmHg 93%
    05:00 +5°C° 0 mm 4 mps 754 mmHg 88%
    06:00 +6°C° 0 mm 4 mps 754 mmHg 83%
    07:00 +7°C° 0 mm 5 mps 755 mmHg 78%
    08:00 +9°C° 0 mm 5 mps 755 mmHg 73%
    09:00 +11°C° 0 mm 6 mps 755 mmHg 68%
    10:00 +13°C° 0 mm 6 mps 755 mmHg 63%
    11:00 +14°C° 0 mm 6 mps 755 mmHg 59%
    12:00 +15°C° 0 mm 6 mps 755 mmHg 56%
    13:00 +16°C° 0 mm 6 mps 755 mmHg 53%
    14:00 +16°C° 0 mm 7 mps 755 mmHg 53%
    15:00 +16°C° 0 mm 7 mps 755 mmHg 53%
    16:00 +16°C° 0 mm 7 mps 755 mmHg 53%
    17:00 +15°C° 0 mm 7 mps 755 mmHg 56%
    18:00 +13°C° 0 mm 6 mps 755 mmHg 59%
    19:00 +12°C° 0 mm 5 mps 755 mmHg 62%
    20:00 +10°C° 0 mm 5 mps 756 mmHg 61%
    21:00 +10°C° 0 mm 6 mps 756 mmHg 59%
    22:00 +9°C° 0 mm 6 mps 756 mmHg 58%
    23:00 +9°C° 0 mm 6 mps 756 mmHg 57%

    Day after tomorrow, 23 April, Tuesday

    Time Temperature Precipitation Wind Pressure Humidity
    00:00 +8°C° 0 mm 6 mps 756 mmHg 57%
    01:00 +8°C° 0 mm 6 mps 756 mmHg 56%
    02:00 +7°C° 0 mm 6 mps 756 mmHg 56%
    03:00 +6°C° 0 mm 7 mps 756 mmHg 56%
    04:00 +6°C° 0 mm 7 mps 756 mmHg 56%
    05:00 +6°C° 0 mm 8 mps 755 mmHg 55%
    06:00 +7°C° 0 mm 9 mps 755 mmHg 54%
    07:00 +8°C° 0 mm 10 mps 755 mmHg 53%
    08:00 +9°C° 0 mm 10 mps 755 mmHg 50%
    09:00 +12°C° 0 mm 11 mps 755 mmHg 47%
    10:00 +13°C° 0 mm 11 mps 755 mmHg 44%
    11:00 +14°C° 0 mm 11 mps 754 mmHg 43%
    12:00 +14°C° 0 mm 11 mps 754 mmHg 43%
    13:00 +16°C° 0 mm 11 mps 754 mmHg 42%
    14:00 +16°C° 0 mm 11 mps 753 mmHg 43%
    15:00 +16°C° 0 mm 11 mps 753 mmHg 44%
    16:00 +16°C° 0 mm 10 mps 752 mmHg 45%
    17:00 +15°C° 0 mm 9 mps 752 mmHg 48%
    18:00 +13°C° 0 mm 8 mps 752 mmHg 50%
    19:00 +12°C° 0 mm 7 mps 752 mmHg 53%
    20:00 +11°C° 0 mm 7 mps 752 mmHg 53%
    21:00 +11°C° 0 mm 8 mps 752 mmHg 53%
    22:00 +11°C° 0 mm 8 mps 752 mmHg 53%
    23:00 +10°C° 0 mm 8 mps 752 mmHg 56%

    24 April, Wednesday

    Time Temperature Precipitation Wind Pressure Humidity
    00:00 +10°C° 0 mm 8 mps 752 mmHg 58%
    01:00 +10°C° 0 mm 8 mps 751 mmHg 60%
    02:00 +10°C° 0.1 mm 8 mps 751 mmHg 64%
    03:00 +8°C° 0.1 mm 9 mps 751 mmHg 67%
    04:00 +8°C° 0.1 mm 9 mps 751 mmHg 71%
    05:00 +8°C° 0 mm 9 mps 751 mmHg 72%
    06:00 +8°C° 0 mm 9 mps 750 mmHg 73%
    07:00 +9°C° 0 mm 10 mps 750 mmHg 73%
    08:00 +10°C° 0 mm 9 mps 750 mmHg 75%
    09:00 +10°C° 0 mm 9 mps 750 mmHg 76%
    10:00 +10°C° 0 mm 8 mps 750 mmHg 77%
    11:00 +13°C° 0 mm 8 mps 750 mmHg 71%
    12:00 +16°C° 0 mm 8 mps 750 mmHg 65%
    13:00 +18°C° 0 mm 8 mps 750 mmHg 59%
    14:00 +20°C° 0 mm 8 mps 750 mmHg 59%
    15:00 +20°C° 0 mm 7 mps 750 mmHg 60%
    16:00 +20°C° 0 mm 6 mps 750 mmHg 60%
    17:00 +19°C° 0 mm 6 mps 750 mmHg 63%
    18:00 +17°C° 0 mm 6 mps 750 mmHg 66%
    19:00 +16°C° 0 mm 5 mps 750 mmHg 69%
    20:00 +15°C° 0 mm 5 mps 750 mmHg 72%
    21:00 +15°C° 0 mm 5 mps 751 mmHg 74%
    22:00 +14°C° 0 mm 5 mps 751 mmHg 77%
    23:00 +13°C° 0 mm 5 mps 751 mmHg 80%

    25 April, Thursday

    Time Temperature Precipitation Wind Pressure Humidity
    00:00 +13°C° 0 mm 4 mps 751 mmHg 82%
    01:00 +12°C° 0 mm 4 mps 751 mmHg 85%
    02:00 +12°C° 0 mm 4 mps 751 mmHg 88%
    03:00 +12°C° 0 mm 4 mps 751 mmHg 90%
    04:00 +10°C° 0 mm 5 mps 751 mmHg 92%
    05:00 +12°C° 0 mm 5 mps 751 mmHg 89%
    06:00 +13°C° 0 mm 5 mps 751 mmHg 85%
    07:00 +14°C° 0 mm 5 mps 751 mmHg 81%
    08:00 +16°C° 0 mm 5 mps 751 mmHg 75%
    09:00 +19°C° 0 mm 6 mps 750 mmHg 69%
    10:00 +21°C° 0 mm 6 mps 750 mmHg 63%
    11:00 +22°C° 0 mm 6 mps 750 mmHg 59%
    12:00 +23°C° 0 mm 6 mps 750 mmHg 54%
    13:00 +24°C° 0 mm 6 mps 749 mmHg 49%
    14:00 +24°C° 0 mm 6 mps 749 mmHg 51%
    15:00 +25°C° 0 mm 5 mps 749 mmHg 52%
    16:00 +25°C° 0 mm 5 mps 749 mmHg 53%
    17:00 +22°C° 0.4 mm 4 mps 748 mmHg 60%
    18:00 +21°C° 0.4 mm 4 mps 748 mmHg 66%
    19:00 +19°C° 0.4 mm 3 mps 748 mmHg 72%
    20:00 +18°C° 0 mm 3 mps 748 mmHg 75%
    21:00 +17°C° 0 mm 3 mps 748 mmHg 79%
    22:00 +17°C° 0 mm 3 mps 748 mmHg 82%
    23:00 +17°C° 0 mm 4 mps 747 mmHg 80%

    26 April, Friday

    Time Temperature Precipitation Wind Pressure Humidity
    00:00 +17°C° 0 mm 4 mps 747 mmHg 78%
    01:00 +18°C° 0 mm 4 mps 747 mmHg 76%
    02:00 +17°C° 0 mm 4 mps 747 mmHg 78%
    03:00 +17°C° 0 mm 4 mps 746 mmHg 80%
    04:00 +15°C° 0 mm 4 mps 746 mmHg 82%
    05:00 +16°C° 0 mm 5 mps 746 mmHg 78%
    06:00 +17°C° 0 mm 5 mps 746 mmHg 75%
    07:00 +19°C° 0 mm 5 mps 746 mmHg 71%
    08:00 +21°C° 0 mm 6 mps 746 mmHg 66%
    09:00 +22°C° 0 mm 6 mps 745 mmHg 61%
    10:00 +24°C° 0 mm 6 mps 745 mmHg 56%
    11:00 +26°C° 0 mm 6 mps 745 mmHg 52%
    12:00 +27°C° 0 mm 6 mps 745 mmHg 49%
    13:00 +28°C° 0 mm 6 mps 744 mmHg 46%
    14:00 +27°C° 0 mm 6 mps 744 mmHg 48%
    15:00 +27°C° 0 mm 6 mps 744 mmHg 50%
    16:00 +26°C° 0 mm 6 mps 744 mmHg 52%
    17:00 +23°C° 0 mm 5 mps 744 mmHg 60%
    18:00 +21°C° 0 mm 5 mps 745 mmHg 69%
    19:00 +19°C° 0 mm 5 mps 745 mmHg 78%
    20:00 +17°C° 0 mm 4 mps 745 mmHg 83%
    21:00 +15°C° 0 mm 4 mps 746 mmHg 88%
    22:00 +14°C° 0 mm 3 mps 746 mmHg 94%
    23:00 +14°C° 0 mm 3 mps 746 mmHg 91%
    Show more